Terug naar catalogus

GAOFEN 9 02

ActiefWetenschapSSO
NORAD 45625·PAYLOAD·🇨🇳 China

Gelanceerd May 31, 2020 vanaf Jiuquan Satellite Launch Center

Loading…

Volgende Passages (komende 24 uur)

TLE

VersSource: Space-Track

Epoch: Sep 14, 2026, 14:32 UTC

1 45625U 20034B   26257.60623892  .00004626  00000-0  17826-3 0  9994
2 45625  97.5863  56.2312 0013668 110.9768 249.2934 15.26770562349805

Volg GAOFEN 9 02 in realtime met AllMySat

Download on the App Store